Zurück zum Katalog

STARLINK-5548

AktivKommunikationSSO
NORAD 56334·PAYLOAD·🇺🇸 United States

Gestartet Apr 27, 2023 von Vandenberg Space Force Base

Loading…

Nächste Überflüge (nächste 24 Stunden)

TLE

AktuellSource: CelesTrak SupGP

Epoche: Sep 15, 2026, 02:22 UTC

1 56334C 23058T   26258.09909722 -.00055653  00000+0 -17278-2 0  2580
2 56334  97.2844 254.8679 0001642  89.7918 249.9403 15.33463292    13

Verfolge STARLINK-5548 in Echtzeit mit AllMySat

Download on the App Store